[[[{"header":{"parameterUnit":"kt","parameterCategory":2,"dx":1,"dy":1,"la1":30.253999710083008,"la2":30.299108505249023,"lo1":-89.0895004272461,"lo2":-89.04439544677734,"nx":28,"ny":28,"refTime":"2022-10-04T21:00:00:Z","depth":0,"parameterNumber":1,"parameterNumberName":"U-component_of_WINDS"},"data":[-1.9547,-1.9635,-1.9644,-1.9749,-1.9775,-1.9849,-1.9879,-1.9919,-1.9953,-2.0043,-2.0097,-2.0118,-2.0157,-2.0226,-2.0286,-2.0294,-2.0319,-2.0342,-2.0348,-2.0233,-2.0218,-2.0204,-2.0183,-2.0347,-2.0347,-2.0466,-2.0467,-2.0468,-1.9461,-1.9487,-1.9545,-1.9608,-1.9659,-1.9641,-1.9691,-1.9735,-1.9802,-1.9845,-1.9899,-1.998,-2.0046,-2.0079,-2.0145,-2.0188,-2.0185,-2.0205,-2.0203,-2.021,-2.0087,-2.0065,-2.0206,-2.0206,-2.0206,-2.0206,-2.0206,-2.0206,-1.9306,-1.9358,-1.9401,-1.9465,-1.9499,-1.9542,-1.9594,-1.9617,-1.9675,-1.9744,-1.9745,-1.9823,-1.9869,-1.9954,-1.9986,-2.0047,-2.0027,-2.0054,-2.006,-2.0067,-2.0073,-1.9901,-2.0059,-2.0059,-2.0058,-2.0058,-2.0058,0,-1.9196,-1.92,-1.9257,-1.9316,-1.9363,-1.9411,-1.9457,-1.9489,-1.9504,-1.9552,-1.9623,-1.9665,-1.975,-1.9819,-1.9883,-1.9912,-1.9902,-1.9902,-1.992,-1.9921,-1.9912,-1.9919,-1.9719,-1.9898,-1.9896,-1.9895,-1.9895,-1.9894,-1.9041,-1.9101,-1.9151,-1.919,-1.9217,-1.928,-1.932,-1.9328,-1.937,-1.9429,-1.9476,-1.9544,-1.9599,-1.9712,-1.9741,-1.9805,-1.9801,-1.9868,-1.9811,-1.9809,-1.9804,-1.98,-1.9807,-1.988,-1.9882,-1.9883,-1.9884,0,-1.8953,-1.8969,-1.9065,-1.911,-1.9123,-1.9186,-1.9225,-1.9279,-1.9296,-1.9372,-1.9391,-1.9418,-1.9488,-1.9506,-1.9591,-1.9598,-1.9704,-1.9698,-1.9688,-1.9688,-1.975,-1.9745,-1.9949,-1.9977,-1.9805,-1.9807,-1.9808,0,-1.8828,-1.8907,-1.8926,-1.8981,-1.9069,-1.9075,-1.9162,-1.9185,-1.9225,-1.9285,-1.9275,-1.9333,-1.9346,-1.9407,-1.9418,-1.9508,-1.9523,-1.9535,-1.9537,-1.9537,-1.9535,-1.9561,-1.9553,-1.9539,-1.9538,-1.9537,-1.9536,0,-1.869,-1.8792,-1.8881,-1.8908,-1.8965,-1.9007,-1.9033,-1.9077,-1.9117,-1.9171,-1.9197,-1.926,-1.9295,-1.9345,-1.9359,-1.9319,-1.9468,-1.9417,-1.948,-1.948,-1.9514,-1.9512,-1.9687,-1.9535,-1.9535,-1.9534,-1.9534,0,-1.8592,-1.8645,-1.8772,-1.8818,-1.8845,-1.8905,-1.8966,-1.9021,-1.9069,-1.908,-1.9123,-1.9119,-1.9198,-1.9146,-1.9256,-1.92,-1.9236,-1.9254,-1.9259,-1.9268,-1.9209,-1.9307,-1.9471,-1.9489,-1.9275,-1.9273,-1.9271,0,-1.843,-1.8562,-1.8568,-1.8689,-1.8753,-1.8736,-1.8803,-1.8845,-1.8865,-1.8922,-1.8944,-1.9011,-1.8976,-1.8999,-1.9051,-1.9077,-1.9149,-1.9068,-1.9154,-1.9157,-1.9141,-1.9292,-1.9313,-1.9432,-1.9243,-1.9246,-1.9248,0,-1.8306,-1.8374,-1.8395,-1.8425,-1.8482,-1.8535,-1.8611,-1.8678,-1.8716,-1.8765,-1.883,-1.8924,-1.8902,-1.8941,-1.8945,-1.8998,-1.9101,-1.8967,-1.8969,-1.8991,-1.9231,-1.925,-1.927,-1.9092,-1.9095,-1.9098,-1.9227,0,-1.8156,-1.8224,-1.8282,-1.8349,-1.8393,-1.8469,-1.8487,-1.8531,-1.8529,-1.8548,-1.8644,-1.8685,-1.8755,-1.8782,-1.8782,-1.8898,-1.8882,-1.8857,-1.8809,-1.8907,-1.895,-1.8968,-1.8743,-1.8742,-1.8741,-1.874,0,0,-1.7998,-1.8095,-1.81,-1.8173,-1.8211,-1.8193,-1.8274,-1.8309,-1.838,-1.8407,-1.8379,-1.8518,-1.8554,-1.8669,-1.8701,-1.8729,-1.8752,-1.8717,-1.886,-1.8873,-1.8886,-1.8932,-1.8949,-1.8738,-1.8737,-1.8737,-1.8737,0,-1.7946,-1.7979,-1.8058,-1.8093,-1.8146,-1.8162,-1.818,-1.8231,-1.8247,-1.834,-1.8326,-1.8386,-1.8497,-1.8537,-1.8571,-1.8703,-1.869,-1.8723,-1.8788,-1.8848,-1.8863,-1.8876,-1.8924,-1.8941,-1.8734,-1.8734,-1.8734,0,-1.7828,-1.7864,-1.7903,-1.7987,-1.8022,-1.8088,-1.804,-1.8113,-1.8162,-1.8142,-1.8235,-1.8261,-1.8316,-1.8422,-1.847,-1.8447,-1.8633,-1.8578,-1.8585,-1.8592,-1.8652,-1.8669,-1.8685,-1.8477,-1.8476,-1.8475,0,0,-1.7782,-1.7845,-1.7887,-1.7977,-1.8,-1.8024,-1.8061,-1.8064,-1.8111,-1.8131,-1.8164,-1.8212,-1.8276,-1.8319,-1.8381,-1.8495,-1.8507,-1.8545,-1.8557,-1.8567,-1.8579,-1.8641,-1.8659,-1.8471,-1.8471,-1.8471,0,0,-1.776,-1.7811,-1.7801,-1.7907,-1.7952,-1.8001,-1.8056,-1.8045,-1.8102,-1.8095,-1.8105,-1.8118,-1.8217,-1.8244,-1.8192,-1.8364,-1.8316,-1.8329,-1.8343,-1.8359,-1.8371,-1.8363,-1.8151,0,0,0,0,0,-1.7717,-1.7805,-1.7794,-1.7815,-1.7921,-1.8006,-1.802,-1.8028,-1.7993,-1.8037,-1.8062,-1.8046,-1.8218,-1.8172,-1.8193,-1.8251,-1.8424,-1.8432,-1.844,-1.8486,-1.8502,-1.8515,0,0,0,0,0,0,-1.7725,-1.775,-1.7792,-1.7844,-1.7868,-1.8003,-1.7945,-1.795,-1.7989,-1.7984,-1.8041,-1.8048,-1.8058,-1.8162,-1.8181,-1.8236,-1.8145,-1.8427,-1.8434,-1.8441,-1.8491,-1.8504,-1.8516,0,0,0,0,0,-1.7731,-1.7751,-1.7919,-1.7843,-1.7864,-1.7896,-1.7942,-1.7946,-1.7976,-1.8016,-1.8022,-1.7979,-1.8059,-1.8076,-1.8173,-1.8227,-1.8132,-1.8139,-1.8432,-1.8437,-1.8442,-1.8498,0,0,0,0,0,0,-1.7736,-1.7756,-1.7924,-1.793,-1.781,-1.7888,-1.7901,-1.7942,-1.8006,-1.8012,-1.7953,-1.7949,-1.8061,-1.8074,-1.8087,-1.8223,-1.8121,-1.8128,-1.8133,-1.8436,-1.844,-1.8444,0,0,0,0,0,0,-1.7745,-1.7762,-1.7927,-1.7885,-1.7887,-1.7882,-1.7893,-1.7977,-1.8007,-1.794,-1.7938,-1.7951,-1.8043,-1.8073,-1.8083,-1.8214,-1.8113,-1.812,-1.8124,-1.8127,-1.8439,-1.8443,0,0,0,0,0,0,-1.7752,-1.7767,-1.7883,-1.7885,-1.7887,-1.7963,-1.7956,-1.8065,-1.7969,-1.7937,-1.7961,-1.7957,-1.8042,-1.8052,-1.808,-1.8207,-1.8212,-1.8113,-1.8118,-1.8121,-1.8123,0,0,0,0,0,0,0,-1.7758,-1.766,-1.7883,-1.7885,-1.7886,-1.7993,-1.7994,-1.7996,-1.7968,-1.7965,-1.7961,-1.7958,-1.8074,-1.8081,-1.8089,-1.8202,0,0,-1.8112,-1.8116,0,0,0,0,0,0,0,0,-1.7655,-1.7659,-1.7884,-1.7885,-1.7886,-1.7993,-1.7994,-1.7996,-1.7967,-1.7965,-1.7962,-1.796,-1.8076,-1.8082,-1.8088,0,0,0,0,0,0,0,0,0,0,0,0,0,0,0,-1.7884,-1.7885,0,-1.7993,-1.7994,-1.7996,-1.7967,-1.7965,-1.7963,-1.7961,-1.8077,-1.8082,-1.8087,0,0,0,0,0,0,0,0,0,0,0,0,0,0,0,0,0,0,0,0,0,0,0,0,0,0,0,0,0,0,0,0,0,0,0,0,0,0,0,0,0,0,0,0,0,0,0,0,0,0,0,0,0,0,0,0,0,0,0,0,0,0,0,0,0,0,0,0,0]}],[{"header":{"parameterUnit":"kt","parameterCategory":2,"dx":1,"dy":1,"la1":30.253999710083008,"la2":30.299108505249023,"lo1":-89.0895004272461,"lo2":-89.04439544677734,"nx":28,"ny":28,"refTime":"2022-10-04T21:00:00:Z","depth":0,"parameterNumber":2,"parameterNumberName":"V-component_of_WINDS"},"data":[2.2788,2.2801,2.2783,2.2789,2.2774,2.2775,2.277,2.276,2.2749,2.2747,2.2742,2.2725,2.2706,2.2696,2.2689,2.2681,2.268,2.2696,2.2684,2.2627,2.2617,2.2608,2.2604,2.2696,2.2697,2.2747,2.2747,2.2747,2.2745,2.2731,2.273,2.2716,2.2714,2.2687,2.2674,2.2674,2.2675,2.2661,2.2656,2.2653,2.2647,2.2622,2.2613,2.2618,2.2604,2.2616,2.2615,2.2613,2.255,2.2546,2.2627,2.2627,2.2627,2.2627,2.2627,2.2627,2.2662,2.2671,2.2653,2.265,2.2639,2.263,2.2635,2.2614,2.2612,2.2602,2.2582,2.2582,2.2564,2.2546,2.2535,2.2534,2.2517,2.2525,2.2527,2.2529,2.2534,2.2462,2.2532,2.2532,2.2532,2.2531,2.2531,0,2.2596,2.2581,2.2578,2.2571,2.2568,2.2561,2.255,2.2553,2.2515,2.2514,2.2512,2.2508,2.2499,2.2495,2.2483,2.247,2.2442,2.2437,2.2442,2.2452,2.2462,2.2455,2.2354,2.2435,2.2434,2.2434,2.2433,2.2433,2.251,2.2523,2.2495,2.2496,2.2486,2.2488,2.2485,2.245,2.2449,2.2431,2.244,2.2435,2.2429,2.2429,2.2404,2.2397,2.2383,2.2416,2.2382,2.239,2.2382,2.2382,2.2382,2.2423,2.2425,2.2426,2.2426,0,2.2463,2.2435,2.2449,2.2421,2.2414,2.2428,2.2404,2.2411,2.239,2.2396,2.2396,2.2364,2.2362,2.2332,2.2324,2.2308,2.2329,2.2316,2.2335,2.233,2.2356,2.2354,2.2446,2.2456,2.2361,2.2362,2.2363,0,2.2379,2.2396,2.2353,2.2363,2.2381,2.2346,2.2364,2.2348,2.2333,2.2338,2.2301,2.2306,2.2267,2.2267,2.2244,2.2256,2.2255,2.2243,2.2237,2.2246,2.2248,2.2244,2.224,2.2223,2.2223,2.2222,2.2222,0,2.2308,2.2306,2.2321,2.2316,2.2288,2.2296,2.2284,2.2267,2.2265,2.2257,2.2254,2.2248,2.2244,2.2239,2.2209,2.2187,2.2224,2.2187,2.2212,2.2212,2.2221,2.2221,2.2311,2.2221,2.2221,2.2221,2.2221,0,2.2235,2.2229,2.2255,2.2231,2.2232,2.2242,2.2233,2.2235,2.2219,2.2205,2.2199,2.2171,2.218,2.2145,2.2157,2.2136,2.2134,2.2124,2.2125,2.2123,2.2086,2.214,2.2229,2.2237,2.2122,2.2121,2.2121,0,2.2161,2.2181,2.2151,2.2177,2.2182,2.214,2.2151,2.2138,2.2121,2.2122,2.2102,2.2103,2.2072,2.2068,2.2078,2.2057,2.2084,2.2053,2.2053,2.2053,2.2057,2.214,2.216,2.2213,2.211,2.2111,2.2112,0,2.21,2.2067,2.2074,2.2066,2.2045,2.2049,2.2061,2.2055,2.2057,2.2048,2.2057,2.2059,2.2034,2.2029,2.2006,2.2017,2.2065,2.199,2.1989,2.2003,2.2102,2.2122,2.2131,2.2046,2.2047,2.2048,2.2103,0,2.1995,2.2001,2.2019,2.2005,2.2004,2.2019,2.1988,2.199,2.1968,2.1949,2.1962,2.1944,2.1938,2.1941,2.192,2.1957,2.1946,2.192,2.1884,2.1939,2.1956,2.1963,2.1861,2.186,2.1859,2.1858,0,0,2.193,2.1939,2.1907,2.1918,2.1914,2.1871,2.189,2.1882,2.1867,2.1865,2.1845,2.1846,2.1833,2.1852,2.1866,2.1865,2.1868,2.185,2.1913,2.1919,2.1925,2.1944,2.1952,2.1856,2.1855,2.1855,2.1855,0,2.1885,2.1874,2.1893,2.1883,2.1867,2.1847,2.1852,2.1828,2.1817,2.183,2.1794,2.1798,2.1801,2.1791,2.1787,2.1847,2.182,2.1848,2.1891,2.1904,2.1912,2.1918,2.1939,2.1946,2.1852,2.1852,2.1852,0,2.1819,2.1802,2.1808,2.18,2.1789,2.1796,2.175,2.176,2.1764,2.1716,2.173,2.1716,2.1701,2.1724,2.1733,2.1715,2.1777,2.1753,2.1758,2.1759,2.177,2.1779,2.1787,2.1678,2.1677,2.1677,0,0,2.1784,2.179,2.1762,2.1788,2.1784,2.1753,2.1754,2.1732,2.172,2.1715,2.1697,2.1686,2.1686,2.1688,2.1687,2.1717,2.171,2.1733,2.1741,2.1748,2.1752,2.1765,2.1774,2.1675,2.1675,2.1675,0,0,2.1767,2.1735,2.1715,2.1741,2.1731,2.1704,2.1721,2.1695,2.1692,2.1686,2.1649,2.1645,2.1666,2.1654,2.1633,2.1673,2.1638,2.1643,2.168,2.169,2.1698,2.17,2.1584,0,0,0,0,0,2.1705,2.1739,2.1721,2.1721,2.171,2.1714,2.1713,2.1683,2.1658,2.1672,2.1653,2.1623,2.1635,2.1615,2.1616,2.1639,2.1652,2.1656,2.166,2.1715,2.1726,2.1735,0,0,0,0,0,0,2.1705,2.1705,2.172,2.1695,2.1692,2.1713,2.1665,2.1657,2.1656,2.165,2.1628,2.1623,2.1597,2.1613,2.1614,2.1637,2.1584,2.1653,2.1657,2.166,2.1719,2.1727,2.1735,0,0,0,0,0,2.1705,2.1705,2.1696,2.1694,2.1692,2.166,2.1663,2.1657,2.1655,2.1625,2.1619,2.1633,2.1599,2.1597,2.1613,2.1637,2.1583,2.1583,2.1656,2.1658,2.1661,2.1723,0,0,0,0,0,0,2.1704,2.1699,2.1694,2.1693,2.168,2.1659,2.1654,2.1656,2.163,2.1624,2.1628,2.1624,2.16,2.1599,2.1598,2.1639,2.1582,2.1583,2.1583,2.1658,2.166,2.1662,0,0,0,0,0,0,2.1698,2.1697,2.1694,2.1677,2.1673,2.1657,2.1653,2.1663,2.163,2.1634,2.1629,2.1626,2.1602,2.16,2.1599,2.1615,2.1582,2.1582,2.1583,2.1583,2.1659,2.1661,0,0,0,0,0,0,2.1697,2.1696,2.1677,2.1674,2.167,2.1647,2.1665,2.1656,2.1616,2.1635,2.1611,2.1609,2.1604,2.1602,2.16,2.1617,2.1616,2.1582,2.1582,2.1582,2.1583,0,0,0,0,0,0,0,2.1697,2.171,2.1706,2.1672,2.1668,2.1676,2.1675,2.1675,2.1615,2.1614,2.1612,2.161,2.158,2.158,2.1581,2.1619,0,0,2.1582,2.1582,0,0,0,0,0,0,0,0,2.171,2.171,2.1706,2.1705,2.1705,2.1675,2.1675,2.1675,2.1615,2.1614,2.1612,2.1611,2.158,2.158,2.1581,0,0,0,0,0,0,0,0,0,0,0,0,0,0,0,2.1705,2.1705,0,2.1675,2.1675,2.1675,2.1615,2.1614,2.1612,2.1611,2.158,2.158,2.1581,0,0,0,0,0,0,0,0,0,0,0,0,0,0,0,0,0,0,0,0,0,0,0,0,0,0,0,0,0,0,0,0,0,0,0,0,0,0,0,0,0,0,0,0,0,0,0,0,0,0,0,0,0,0,0,0,0,0,0,0,0,0,0,0,0,0,0,0,0]}]]]